Stündliche Wetter Abertura

Heute, 17 Juni, Donnerstag

Zeit Temperatur Niederschläge Wind Luftdruck Luftfeuchtigkeit
00:00 +20°C° 0 mm 3 m/S 726 mmHg 54%
01:00 +19°C° 0 mm 2 m/S 726 mmHg 60%
02:00 +18°C° 0 mm 2 m/S 726 mmHg 66%
03:00 +18°C° 0 mm 2 m/S 725 mmHg 73%
04:00 +18°C° 0 mm 2 m/S 726 mmHg 74%
05:00 +18°C° 0 mm 2 m/S 726 mmHg 75%
06:00 +18°C° 0 mm 2 m/S 726 mmHg 76%
07:00 +19°C° 0 mm 2 m/S 726 mmHg 70%
08:00 +20°C° 0 mm 2 m/S 726 mmHg 64%
09:00 +21°C° 0 mm 2 m/S 727 mmHg 58%
10:00 +23°C° 0 mm 2 m/S 726 mmHg 53%
11:00 +24°C° 0 mm 3 m/S 726 mmHg 48%
12:00 +25°C° 0 mm 3 m/S 726 mmHg 43%
13:00 +25°C° 0 mm 3 m/S 726 mmHg 43%
14:00 +25°C° 0 mm 3 m/S 726 mmHg 43%
15:00 +25°C° 0 mm 3 m/S 725 mmHg 43%
16:00 +25°C° 0 mm 3 m/S 725 mmHg 46%
17:00 +24°C° 0 mm 3 m/S 725 mmHg 49%
18:00 +24°C° 0 mm 3 m/S 725 mmHg 52%
19:00 +21°C° 0.5 mm 3 m/S 725 mmHg 61%
20:00 +20°C° 0.5 mm 2 m/S 726 mmHg 71%
21:00 +20°C° 0.5 mm 1 m/S 726 mmHg 80%
22:00 +19°C° 0.5 mm 1 m/S 726 mmHg 82%
23:00 +19°C° 0.5 mm 1 m/S 726 mmHg 85%

Morgen, 18 Juni, Freitag

Zeit Temperatur Niederschläge Wind Luftdruck Luftfeuchtigkeit
00:00 +17°C° 0.5 mm 0 m/S 726 mmHg 87%
01:00 +18°C° 0.3 mm 1 m/S 726 mmHg 89%
02:00 +18°C° 0.3 mm 1 m/S 726 mmHg 91%
03:00 +18°C° 0.3 mm 1 m/S 726 mmHg 93%
04:00 +18°C° 0.2 mm 1 m/S 726 mmHg 91%
05:00 +17°C° 0.2 mm 2 m/S 726 mmHg 90%
06:00 +17°C° 0.2 mm 2 m/S 727 mmHg 89%
07:00 +18°C° 0.1 mm 2 m/S 727 mmHg 83%
08:00 +19°C° 0.1 mm 2 m/S 727 mmHg 78%
09:00 +19°C° 0.1 mm 2 m/S 727 mmHg 72%
10:00 +21°C° 0.5 mm 2 m/S 727 mmHg 66%
11:00 +23°C° 0.5 mm 2 m/S 727 mmHg 60%
12:00 +24°C° 0.5 mm 2 m/S 727 mmHg 55%
13:00 +24°C° 0.2 mm 2 m/S 727 mmHg 51%
14:00 +25°C° 0.2 mm 2 m/S 727 mmHg 48%
15:00 +25°C° 0.2 mm 2 m/S 727 mmHg 44%
16:00 +25°C° 0 mm 1 m/S 727 mmHg 45%
17:00 +25°C° 0 mm 1 m/S 727 mmHg 45%
18:00 +25°C° 0 mm 1 m/S 727 mmHg 45%
19:00 +23°C° 0.1 mm 1 m/S 727 mmHg 51%
20:00 +22°C° 0.1 mm 1 m/S 727 mmHg 58%
21:00 +20°C° 0.1 mm 1 m/S 727 mmHg 64%
22:00 +20°C° 0.1 mm 1 m/S 727 mmHg 66%
23:00 +19°C° 0.1 mm 1 m/S 727 mmHg 68%

übermorgen, 19 Juni, Samstag

Zeit Temperatur Niederschläge Wind Luftdruck Luftfeuchtigkeit
00:00 +19°C° 0.1 mm 1 m/S 727 mmHg 71%
01:00 +18°C° 0.1 mm 1 m/S 727 mmHg 74%
02:00 +16°C° 0.1 mm 1 m/S 727 mmHg 76%
03:00 +16°C° 0.1 mm 1 m/S 727 mmHg 79%
04:00 +16°C° 0 mm 1 m/S 727 mmHg 80%
05:00 +15°C° 0 mm 1 m/S 727 mmHg 80%
06:00 +14°C° 0 mm 0 m/S 728 mmHg 80%
07:00 +18°C° 0 mm 1 m/S 728 mmHg 72%
08:00 +19°C° 0 mm 2 m/S 728 mmHg 64%
09:00 +20°C° 0 mm 2 m/S 728 mmHg 56%
10:00 +21°C° 0.1 mm 3 m/S 728 mmHg 51%
11:00 +22°C° 0.1 mm 3 m/S 728 mmHg 45%
12:00 +24°C° 0.1 mm 3 m/S 728 mmHg 40%
13:00 +23°C° 0 mm 4 m/S 728 mmHg 43%
14:00 +22°C° 0 mm 4 m/S 728 mmHg 45%
15:00 +22°C° 0 mm 4 m/S 728 mmHg 48%
16:00 +22°C° 0.1 mm 4 m/S 728 mmHg 48%
17:00 +22°C° 0.1 mm 4 m/S 727 mmHg 47%
18:00 +22°C° 0.1 mm 3 m/S 727 mmHg 47%
19:00 +21°C° 0 mm 4 m/S 728 mmHg 53%
20:00 +20°C° 0 mm 4 m/S 728 mmHg 60%
21:00 +18°C° 0 mm 4 m/S 728 mmHg 67%
22:00 +17°C° 0 mm 4 m/S 729 mmHg 72%
23:00 +16°C° 0 mm 3 m/S 729 mmHg 77%

20 Juni, Sonntag

Zeit Temperatur Niederschläge Wind Luftdruck Luftfeuchtigkeit
00:00 +14°C° 0 mm 3 m/S 729 mmHg 82%
01:00 +13°C° 0 mm 3 m/S 729 mmHg 84%
02:00 +14°C° 0 mm 2 m/S 729 mmHg 86%
03:00 +13°C° 0 mm 2 m/S 729 mmHg 88%
04:00 +13°C° 0 mm 2 m/S 729 mmHg 87%
05:00 +13°C° 0 mm 2 m/S 729 mmHg 85%
06:00 +13°C° 0 mm 2 m/S 729 mmHg 83%
07:00 +15°C° 0 mm 2 m/S 729 mmHg 76%
08:00 +16°C° 0 mm 2 m/S 729 mmHg 68%
09:00 +17°C° 0 mm 3 m/S 729 mmHg 61%
10:00 +18°C° 0 mm 3 m/S 729 mmHg 60%
11:00 +19°C° 0 mm 3 m/S 729 mmHg 60%
12:00 +20°C° 0 mm 3 m/S 729 mmHg 59%
13:00 +20°C° 0 mm 4 m/S 729 mmHg 61%
14:00 +20°C° 0 mm 4 m/S 729 mmHg 64%
15:00 +20°C° 0 mm 5 m/S 728 mmHg 67%
16:00 +21°C° 0 mm 4 m/S 728 mmHg 63%
17:00 +22°C° 0 mm 4 m/S 728 mmHg 60%
18:00 +22°C° 0 mm 4 m/S 728 mmHg 56%
19:00 +21°C° 0 mm 3 m/S 727 mmHg 62%
20:00 +20°C° 0 mm 2 m/S 727 mmHg 67%
21:00 +19°C° 0 mm 1 m/S 727 mmHg 73%
22:00 +19°C° 0 mm 1 m/S 728 mmHg 74%
23:00 +17°C° 0 mm 2 m/S 728 mmHg 74%

21 Juni, Montag

Zeit Temperatur Niederschläge Wind Luftdruck Luftfeuchtigkeit
00:00 +16°C° 0 mm 3 m/S 728 mmHg 75%
01:00 +15°C° 0 mm 2 m/S 728 mmHg 77%
02:00 +14°C° 0 mm 2 m/S 727 mmHg 79%
03:00 +13°C° 0 mm 2 m/S 727 mmHg 81%
04:00 +13°C° 0 mm 1 m/S 728 mmHg 81%
05:00 +13°C° 0 mm 1 m/S 728 mmHg 81%
06:00 +13°C° 0 mm 1 m/S 728 mmHg 81%
07:00 +15°C° 0 mm 2 m/S 728 mmHg 71%
08:00 +17°C° 0 mm 2 m/S 729 mmHg 61%
09:00 +19°C° 0 mm 3 m/S 729 mmHg 51%
10:00 +21°C° 0 mm 3 m/S 729 mmHg 45%
11:00 +22°C° 0 mm 3 m/S 729 mmHg 38%
12:00 +25°C° 0 mm 3 m/S 729 mmHg 32%
13:00 +26°C° 0 mm 4 m/S 729 mmHg 30%
14:00 +26°C° 0 mm 4 m/S 729 mmHg 27%
15:00 +27°C° 0 mm 4 m/S 728 mmHg 24%
16:00 +27°C° 0 mm 4 m/S 728 mmHg 26%
17:00 +26°C° 0 mm 5 m/S 728 mmHg 27%
18:00 +26°C° 0 mm 5 m/S 728 mmHg 28%
19:00 +23°C° 0 mm 5 m/S 729 mmHg 36%
20:00 +21°C° 0 mm 4 m/S 729 mmHg 43%
21:00 +19°C° 0 mm 4 m/S 729 mmHg 51%
22:00 +18°C° 0 mm 4 m/S 729 mmHg 55%
23:00 +17°C° 0 mm 3 m/S 729 mmHg 60%

22 Juni, Dienstag

Zeit Temperatur Niederschläge Wind Luftdruck Luftfeuchtigkeit
00:00 +16°C° 0 mm 2 m/S 729 mmHg 65%
01:00 +16°C° 0 mm 2 m/S 729 mmHg 68%
02:00 +15°C° 0 mm 2 m/S 729 mmHg 71%
03:00 +14°C° 0 mm 2 m/S 729 mmHg 74%
04:00 +14°C° 0 mm 1 m/S 730 mmHg 74%
05:00 +14°C° 0 mm 1 m/S 730 mmHg 74%
06:00 +14°C° 0 mm 1 m/S 730 mmHg 73%
07:00 +18°C° 0 mm 1 m/S 730 mmHg 64%
08:00 +20°C° 0 mm 1 m/S 731 mmHg 54%
09:00 +23°C° 0 mm 1 m/S 731 mmHg 44%
10:00 +25°C° 0 mm 1 m/S 731 mmHg 38%
11:00 +27°C° 0 mm 1 m/S 731 mmHg 32%
12:00 +29°C° 0 mm 1 m/S 731 mmHg 26%
13:00 +30°C° 0 mm 1 m/S 731 mmHg 24%
14:00 +31°C° 0 mm 1 m/S 731 mmHg 21%
15:00 +32°C° 0 mm 1 m/S 730 mmHg 19%
16:00 +32°C° 0 mm 1 m/S 730 mmHg 19%
17:00 +32°C° 0 mm 2 m/S 730 mmHg 19%
18:00 +32°C° 0 mm 2 m/S 730 mmHg 19%
19:00 +29°C° 0 mm 2 m/S 730 mmHg 24%
20:00 +27°C° 0 mm 2 m/S 730 mmHg 28%
21:00 +24°C° 0 mm 2 m/S 731 mmHg 32%
22:00 +24°C° 0 mm 2 m/S 731 mmHg 33%
23:00 +23°C° 0 mm 2 m/S 731 mmHg 34%
Mehr zeigen

Wir brauchen deine Erlaubnis

Meteoprog und unser Service Anbieter werden persönliche Daten aufbewahren, so wie Cookies, Geräte Bezeichnung oder ähnliche Technologien von deinem Gerät und Prozess, so wie Persönliche Daten Inhalte und Werbungen, genauso wie social Media und den Verkehr zu analysieren.

  • Aufbewahrung und/oder Zugang zu deiner Geräte Informationen.

    Cookies, Geräte Bezeichnung oder andere Informationen, können aufbewahrt oder Zugang zu deinem Gerät erhalten, für den Grund, der oben angegeben wird.

  • Personalisierte Werbung und Inhalte, Messungen, Einblick in das Publikum und Produkt Entwicklung.

    Werbungen und Inhalte können personalisiert werden, basierend auf ein Profil. Mehr Daten können besser personalisierte Werbungen und Inhalte hinzufügen. Werbung und Inhalte können gezeigt und gemessen werden. Einblicke über das Publikum, welche die Werbung gesehen haben und den Inhalt, können abgeleitet werden. So wie Daten können genutzt werden, um es zu verbessern oder die Benutzer Erfahrung zu verbessern das System und die Software.

Wenn du “Ich stimme zu” klickst, erlaubst du uns, die Cookies zu benutzen die Geräte Bezeichnung, den Web oder ähnliche Technologien zu benutzen. Deine Settings, können in deinem Gerät bei deinem Browser geändert werden.

Für den bestimmten Zweck, berechtigten Interessen beruhen darauf, mehr als auf den Inhalt. Du kannst mehr darüber in unseren Privaten und Cookie Politik lesen.